Regional Weather Roundup
Issued by NWS Pendleton, OR

Home | Current Version | Previous Version | Text Only | Print | Product List | Glossary On
Versions: 1 2 3 4 5 6 7 8 9 10 11 12 13 14 15 16 17 18 19 20 21 22 23 24 25 26 27 28 29 30 31 32 33 34 35 36 37 38 39 40 41 42 43 44 45 46 47 48 49 50
000
ASUS46 KPDT 290525
RWRPDT
PENDLETON REGIONAL WEATHER ROUNDUP
NATIONAL WEATHER SERVICE PENDLETON OREGON
1000 PM PDT TUE JUL 28 2015

NOTE: FAIR INDICATES FEW OR NO CLOUDS BELOW 12,000 FEET WITH NO
SIGNIFICANT WEATHER AND/OR OBSTRUCTIONS TO VISIBILITY.

# INDICATES UNOFFICIAL STATION AND DATA

WAZ520-290610-
EAST SLOPES OF WASHINGTON CASCADES

CITY            SKY/WX      TMP DP  RH  WIND    PRES   REMARKS
#BULLFROG 2SW   N/A         62  46  56  CALM    27.82R
#BUMPING DAM    N/A         59  N/A N/A CALM    N/A
#CLE ELUM HS    N/A         67  48  50  SW2     30.15R
#CLE ELUM LAKE  N/A         63  48  58  CALM    30.11R
#CLIFFDEL 2NW   N/A         65  46  50  N3      N/A
#GLENWOOD       N/A         57  50  77  CALM    30.11R
#MANASTASH CYN  N/A         59  41  51  CALM    30.18R
#NELSON         N/A         68  50  53  CALM    30.14R
#NELSON 3SW     N/A         64  45  50  CALM    30.32R
#RONALD 2NW     N/A         65  46  50  NE1     30.11R
#SNOWDEN        N/A         61  35  38  CALM    N/A
#TEANAWAY 4NE   N/A         68  51  55  SW3     N/A
#TROUT LAKE 1NE N/A         68  51  55  CALM    30.10R
$$

WAZ521-290610-
SIMCOE HIGHLANDS

CITY            SKY/WX      TMP DP  RH  WIND    PRES   REMARKS
#BICKLETON HS   N/A         64  26  23  NW3     N/A
#CENTERVILLE 4W N/A         73  41  31  CALM    29.91R
#CENTERVILLE 1SWN/A         64  38  38  CALM    30.06R
#GOLDENDALE     N/A         76  37  24  S2      N/A
#GOLDENDALE 1NE N/A         67  28  23  N3      N/A
#GOLDENDALE 5WNWN/A         66  40  38  CALM    30.09R
#GOODNOE HILLS  N/A         74  40  29  N3      N/A
#LYLE 6NE       N/A         75  53  46  CALM    30.06R
$$

WAZ026-290610-
KITTITAS VALLEY

CITY            SKY/WX      TMP DP  RH  WIND    PRES   REMARKS
ELLENSBURG AP   CLEAR       72  46  39  NW16    30.17R
YTC-OPS AREA    N/A         69  34  27  SW3     30.21R
#ELLENSBURG CWU N/A         71  47  42  N12     30.05R
#ELLENSBURG 3NE N/A         70  48  46  N7      30.16R
#ELLENSBURG 1E  N/A         71  43  36  N1      N/A
#KITTITAS 3S    N/A         63  49  60  CALM    30.08R
#THORP 6N       N/A         68  48  49  W15G31  30.13R
$$

WAZ027-290610-
YAKIMA VALLEY

CITY            SKY/WX      TMP DP  RH  WIND    PRES   REMARKS
SUNNYSIDE AP    CLEAR       60  46  60  N6      30.13R
YAKIMA AIRPORT  CLEAR       68  45  44  VRB5    30.15R
#DONALD 2NE     N/A         74   5   7  CALM    28.99R
#GRANDVIEW      N/A         66  45  47  CALM    30.12R
#MABTON         N/A         70  44  39  SE1     30.11R
#MOXEE 2E       N/A         65  36  34  SE2     30.07R
#NACHES 2SW     N/A         72  46  39  NW1     30.16R
#OUTLOOK DOT    N/A         N/A N/A N/A N6      N/A
#SELAH 8E       N/A         64  35  34  SE5     N/A
#TERRACE HTS    N/A         68  41  37  CALM    30.07R
#TOPPENISH      N/A         69  48  47  CALM    30.01R
#WAPATO 4NE     N/A         74   5   7  CALM    28.99R
#WEST VALLEY    N/A         70  48  46  CALM    30.08R
#WHITE SWAN 5E  N/A         64  47  54  NW2     30.10R
#WILEY CITY 3W  N/A         66  38  36  CALM    30.13R
$$

WAZ028-290610-
LOWER COLUMBIA BASIN...WASHINGTON

CITY            SKY/WX      TMP DP  RH  WIND    PRES   REMARKS
PASCO           CLEAR       67  48  50  N5      30.11R
RICHLAND AWOS   CLEAR       70  50  49  W5      30.11R
#BASIN CITY 5SW N/A         64  50  60  CALM    30.11R
#BENTON CITY    N/A         70  43  38  W1      30.01R
#CONNELL 5N     N/A         67  38  34  CALM    30.09S
#CONNELL 5NW    N/A         64  45  50  CALM    30.06R
#ELTOPIA 6NW    N/A         70  44  39  CALM    29.09R
#KAHLOTUS       N/A         73  38  28  E5      30.09R
#KENNEWICK      N/A         62  46  56  CALM    27.82R
#KENNEWICK 3S   N/A         73  42  33  N1      30.09R
#PATERSON       N/A         75  45  34  N3      30.08R
#PROSSER        N/A         73  41  31  CALM    30.09R
#SAGEMOOR 2W    N/A         70  50  49  CALM    29.94R
#TOUCHET 2S     N/A         63  47  56  CALM    30.06R
#WEST PASCO     N/A         70  46  42  CALM    30.10R
$$

WAZ029-290610-
FOOTHILLS OF THE BLUES...WASHINGTON

CITY            SKY/WX      TMP DP  RH  WIND    PRES   REMARKS
WALLA WALLA AP  CLEAR       71  41  34  E6      30.14R
#DAYTON SCHOOL  N/A         66  33  29  NE1     30.15R
#LOWDEN 2SE     N/A         64  45  50  E3      30.08R
#PLEASANT VIEW 1N/A         72  35  26  CALM    30.14R
#PRESCOTT       N/A         60  39  46  CALM    30.09R
#SUDBURY        N/A         63  N/A N/A CALM    N/A
#WHITMAN COLLEGEN/A         73  44  35  N1      30.14R
#WAITSBURG 8N   N/A         54  12  18  CALM    30.00R
#WALLA WALLA U  N/A         74  46  37  CALM    30.09R
#WHITMAN MISSIONN/A         64  49  58  CALM    30.10R
$$

WAZ030-290610-
BLUE MOUNTAINS...WASHINGTON

CITY            SKY/WX      TMP DP  RH  WIND    PRES   REMARKS
$$

ORZ009-041-WAZ024-290610-
COLUMBIA RIVER GORGE

CITY            SKY/WX      TMP DP  RH  WIND    PRES   REMARKS
HOOD RIVER AP   CLEAR       72  50  46  S7      30.11R
THE DALLES AP   CLEAR       74  45  35  SE3     30.08R
#ARLINGTON AIRPON/A         77  41  28  CALM    N/A
#MOSIER 1S      N/A         73  38  28  CALM    30.11S
#MURDOCK        N/A         78  46  32  E1      30.09R

$$

ORZ510-290610-
NORTH CENTRAL OREGON

CITY            SKY/WX      TMP DP  RH  WIND    PRES   REMARKS
#CHENOWITH 1W   N/A         74  49  41  W10     N/A
#DUFUR 9E       N/A         72  36  27  E8      30.15R
#GRASS VALLEY 1SN/A         66  38  36  NE6     30.12R
#MAUPIN SCHOOL  N/A         77  46  33  CALM    30.13R
#MORO SCHOOL    N/A         61  41  48  CALM    30.17R
#SHANIKO 4NW    N/A         65  34  31  N8      30.25R
#TYGH VALLEY 2NEN/A         75  41  29  CALM    30.08R
#WAPANITIA AIRPON/A         67  38  34  W1      30.11R
#WASCO 5NE      N/A         57  34  42  CALM    30.10R
$$

ORZ511-290610-
CENTRAL OREGON

CITY            SKY/WX      TMP DP  RH  WIND    PRES   REMARKS
BEND AIRPORT    CLEAR       66  32  28  CALM    30.23R
MADRAS AIRPORT  CLEAR       64  37  37  N8      30.20R
PRINEVILLE AP   CLEAR       68  34  28  N8      30.21R
REDMOND AIRPORT CLEAR       61  32  33  N3      30.21R
#BEND 1SW       N/A         60  37  42  CALM    N/A
#BEND-AWBREY    N/A         64  36  35  CALM    30.13R
#BEND-KIM LN    N/A         63  38  39  CALM    30.21R
#CROOKED RVR RANN/A         71  40  32  E5      30.09R
#CULVER         N/A         68  40  36  CALM    30.16R
#LAKE BILLY CHINN/A         72  -3   5  N5      30.19R
#POWELL BUTTE   N/A         66  36  33  E2      29.84R
#PRINEVILLE 3N  N/A         64  41  43  N2      30.06R
#WARM SPRINGS   N/A         76  41  28  CALM    30.11R

$$


ORZ509-290610-
EAST SLOPES OF OREGON CASCADES

CITY            SKY/WX      TMP DP  RH  WIND    PRES   REMARKS
#CAMP SHERMAN   N/A         58  36  44  CALM    30.14R
#LA PINE 4NW    N/A         62  37  39  CALM    30.17R
#SISTERS AIRPOR N/A         62  41  46  N2      30.17S
#SISTERS 3N     N/A         57  30  35  CALM    30.34R
#SUNRIVER       N/A         61  37  41  CALM    30.02R
#TUMALO 3W      N/A         68  34  28  N2      30.01R
#WANOGA BUTTE D N/A         57  27  31  NE6     N/A

$$

ORZ044-290610-
LOWER COLUMBIA BASIN...OREGON

CITY            SKY/WX      TMP DP  RH  WIND    PRES   REMARKS
HERMISTON       CLEAR       68  43  40  E5      30.11R
#BOARDMAN SCHOOLN/A         67  49  52  CALM    30.11R
#BOARDMAN 8SW   N/A         73  44  35  CALM    30.09R
#ECHO 8SW       N/A         62  40  44  CALM    30.13R
#IONE SCHOOL    N/A         71  40  32  CALM    30.10R
#IRRIGON 4NW    N/A         67  57  70  S1      N/A
#UMATILLA       N/A         73  47  40  CALM    30.03R
$$

ORZ507-290610-
NORTHERN FOOTHILLS OF THE BLUES

CITY            SKY/WX      TMP DP  RH  WIND    PRES   REMARKS
PENDLETON AIRPT CLEAR       68  34  28  NW5     30.15R
#ADAMS 3WNW     N/A         61  36  39  CALM    30.11R
#ATHENA         N/A         62  38  41  CALM    30.13R
#CAYUSE         N/A         68  41  37  CALM    30.09R
#HELIX SCHOOL   N/A         65  39  38  CALM    30.11R
#HELIX 3N       N/A         65  37  35  CALM    30.13R
#HOLDMAN 5SE    N/A         63  36  36  SE5     30.14R
#HOLDMAN 6E     N/A         60  37  42  E1      29.92R
#M-F GROVE ELEM N/A         66  38  36  CALM    30.13R
#M-FREEWATER 5SEN/A         64  44  48  CALM    30.14R
#PENDLETON DNTN N/A         70  36  29  CALM    30.11R
#PDT AQUATIC CTRN/A         70  35  28  CALM    30.12S
#PDT SUNRIDGE   N/A         65  37  35  CALM    30.16R
#PENDLETON 7NW  N/A         67  38  34  CALM    N/A
#PILOT ROCK     N/A         62  38  41  CALM    30.19R
#TUTUILLA       N/A         60  40  47  CALM    30.12R
#UMAPINE 2E     N/A         60  50  69  CALM    30.09R
#WESTON SCHOOL  N/A         65  34  31  CALM    30.05R

$$

ORZ508-290610-
SOUTHERN FOOTHILLS OF THE BLUES

CITY            SKY/WX      TMP DP  RH  WIND    PRES   REMARKS
#AJAX           N/A         70  32  24  N3      30.11R
#CONDON SCHOOL  N/A         65  39  38  N3      30.16R
#CONDON 5W      N/A         66  34  30  NE2     30.20R
#FOSSIL SCHOOL  N/A         69  40  35  CALM    30.14R
#HEPPNER EOC    N/A         66  40  38  SE6     30.05R
#HEPPNER 4NE    N/A         60  36  41  CALM    30.12R
#LEXINGTON 2SE  N/A         64  42  45  SE5     30.13R
#OLEX 4N        N/A         71  40  32  CALM    30.11R
#RUGGS 5NE      N/A         68  37  32  VRB3    30.40S
#RUGGS 2SW      N/A         64  39  40  S3      30.14R

$$

ORZ502-503-290610-
BLUE MOUNTAINS

CITY            SKY/WX      TMP DP  RH  WIND    PRES   REMARKS
MEACHAM         CLEAR       54  39  57  CALM    30.26R
#LONG CREEK HS  N/A         65  41  41  CALM    30.21R
#PIKES PEAK     N/A         67  37  33  N2      27.99S
#TOLLGATE       N/A         52  37  56  CALM    30.14R
#TROY SCHOOL    N/A         67  44  43  NW1     29.95R
#UKIAH          N/A         56  40  55  CALM    30.19R
#WESTON 4E      N/A         63  38  39  CALM    30.07R
$$

ORZ505-290610-
JOHN DAY BASIN

CITY            SKY/WX      TMP DP  RH  WIND    PRES   REMARKS
JOHN DAY        CLEAR       67  30  25  N3      30.23R
#JOHN DAY KJDY  N/A         65  39  38  E1      30.28R
#DAYVILLE SCHOOLN/A         74  33  22  CALM    30.13R
#MITCHELL       N/A         66  42  42  CALM    30.35R
#MONUMENT HS    N/A         68  41  37  CALM    30.16R
#MT. VERNON 5SE N/A         61  32  33  CALM    30.19R
#WINLOCK        N/A         65  38  37  CALM    30.27R
$$

ORZ506-290610-
OCHOCO AND JOHN DAY HIGHLANDS

CITY            SKY/WX      TMP DP  RH  WIND    PRES   REMARKS
#HORSE RIDGE DO N/A         65  30  27  NW6     N/A
#PAULINA SCHOOL N/A         63  33  32  CALM    30.17R
#PINE MTN OBS   N/A         58  32  37  N7      N/A
#PRAIRIE CITY   N/A         54  38  55  CALM    30.20R
#SENECA         N/A         59  N/A N/A W2      N/A
#SENECA 9NW     N/A         53  32  45  CALM    30.15R
$$

ORZ049-290610-
GRANDE RONDE VALLEY

CITY            SKY/WX      TMP DP  RH  WIND    PRES   REMARKS
LA GRANDE       CLEAR       61  34  36  N6      30.20R
#COVE           N/A         62  42  48  NE2     30.21R
#COVE SCHOOL    N/A         61  38  42  SE1     30.21R
#COVE 6NW       N/A         61  39  44  CALM    30.16R
#ELGIN 3N       N/A         60  37  42  CALM    30.17R
#ELGIN 1E       N/A         63  41  44  CALM    N/A
#ISLAND CITY 4N N/A         75  50  41  CALM    30.11S
#LA GRANDE ELEM N/A         70  40  34  W14     30.20R
#UNION 1S       N/A         60  39  46  CALM    30.03R
$$

ORZ050-290610-
WALLOWA COUNTY

CITY            SKY/WX      TMP DP  RH  WIND    PRES   REMARKS
JOSEPH AIRPORT  CLEAR       55  36  49  S5      30.28R
#IMNAHA SCHOOL  N/A         66  42  42  S2      30.14R
#IMNAHA 10S     N/A         64  37  37  SW5     30.19R
#JOSEPH 3N      N/A         50  36  58  CALM    30.26R
#JOSEPH 3W      N/A         58  35  42  W2      30.11R
#LOSTINE        N/A         60  38  44  S1      29.95R
#MT HOWARD 8000 N/A         52  31  44  CALM    30.47R
#PROMISE 1S     N/A         59  38  45  CALM    30.23R
#WALLOWA SCHOOL N/A         57  41  55  CALM    30.17R



$$



USA.gov is the U.S. government's official web portal to all federal, state and local government web resources and services.